Regional Weather Roundup
Issued by NWS

Home | Current Version | Previous Version | Graphics & Text | Print | Product List | Glossary On
Versions: 1 2 3 4 5 6 7 8 9 10 11 12 13 14 15 16 17 18 19 20 21 22 23 24 25 26 27
000
ASUS45 KPSR 232010
RWRAZ

ARIZONA HOURLY REGIONAL WEATHER ROUNDUP
NATIONAL WEATHER SERVICE PHOENIX AZ
100 PM MST SAT JUL 23 2016

NOTE: FAIR INDICATES FEW OR NO CLOUDS BELOW 12,000 FEET WITH NO
SIGNIFICANT WEATHER AND/OR OBSTRUCTIONS TO VISIBILITY.

AZZ001>003-036-232100-
NORTHWEST ARIZONA

CITY           SKY/WX    TMP DP  RH WIND       PRES   REMARKS
BULLHEAD CITY  SUNNY    109  45  11 S18       29.78F HX 104
KINGMAN        SUNNY    102  42  13 SW17G25   30.02F
$$

AZZ004>008-015-016-018-232100-
NORTH CENTRAL ARIZONA

CITY           SKY/WX    TMP DP  RH WIND       PRES   REMARKS
GRAND CANYON   PTSUNNY   90  37  15 SW12      30.28F
WILLIAMS       SUNNY     88  41  19 NW10G17   30.37F
PRESCOTT       MOSUNNY   93  47  20 VRB3      30.16F
FLAGSTAFF      PTSUNNY   85  42  22 VRB6      30.31F
PAYSON         SUNNY     93  46  20 W10G18    30.18F
PAGE           SUNNY    100  38  11 N8        30.04F
$$

AZZ009>014-017-232100-
NORTHEAST ARIZONA

CITY           SKY/WX    TMP DP  RH WIND       PRES   REMARKS
WINSLOW        SUNNY     98  44  15 NE6       30.13F
SAINT JOHNS    SUNNY     92  43  18 VRB7      30.18F
WINDOW ROCK    MOSUNNY   90  45  21 W9        30.26
SHOW LOW       SUNNY     84  41  21 NW5       30.27F
$$

AZZ023-232100-
GREATER PHOENIX AREA

CITY           SKY/WX    TMP DP  RH WIND       PRES   REMARKS
PHOENIX        PTSUNNY  106  58  20 W8        29.83F HX 106
BUCKEYE          N/A    104  55  20 W8        29.85F HX 103
GLENDALE       MOSUNNY  106  57  20 SW14G25   29.85F HX 105
LUKE AFB       SUNNY    106  58  20 W8        29.82F HX 106
DEER VALLEY    SUNNY    104  57  21 W8G17     29.86F HX 103
SCOTTSDALE     SUNNY    104  57  21 MISG      29.88F HX 103
MESA-FALCON    MOSUNNY  N/A N/A N/A W12       29.84F
MESA-GATEWAY   MOSUNNY  102  57  22 CALM      29.87F HX 101
CHANDLER       MOSUNNY  104  55  20 W7        29.85F HX 103
$$

AZZ027-028-232100-
SOUTHWEST MARICOPA COUNTY AND PINAL COUNTY

CITY           SKY/WX    TMP DP  RH WIND       PRES   REMARKS
CASA GRANDE    SUNNY    104  55  20 W12       29.90F HX 103
GILA BEND      FAIR     107  52  16 VRB7G22   29.82F HX 105
$$

AZZ503-504-507>509-232100-
SOUTHEAST ARIZONA

CITY           SKY/WX    TMP DP  RH WIND       PRES   REMARKS
TUCSON         SUNNY    102  54  20 N10       29.97F HX 100
DAVIS-MONTHAN  MOSUNNY  100  55  22 NW15      29.96F
RYAN FIELD     SUNNY    102  54  19 NW14      29.97F HX 100
NOGALES        SUNNY     96  57  27 NW8       30.08F
SIERRA VISTA   SUNNY     94  54  26 N8        30.14F
DOUGLAS        SUNNY     93  57  29 SW7       30.07F
SAFFORD        SUNNY    103  48  15 W17G26    29.94F
$$

AZZ020-021-025-026-031-232100-
SOUTHWEST ARIZONA

CITY           SKY/WX    TMP DP  RH WIND       PRES   REMARKS
YUMA           SUNNY    108  61  21 S15       29.78F HX 110
$$

CAZ031-033-041-043-047-048-061-232100-
SOUTHERN CALIFORNIA

CITY           SKY/WX    TMP DP  RH WIND       PRES   REMARKS
DOWNTOWN L.A.  SUNNY     93  63  36 VRB3      29.78F
L.A. AIRPORT   PTSUNNY   83  64  52 W9        29.81S
SAN DIEGO      CLOUDY    68  65  90 S15       29.87S
BURBANK        SUNNY    100  43  14 SE6       29.81F SMOKE
ONTARIO        MOSUNNY  105  40  11 SW6       29.81F
RIVERSIDE      SUNNY    107  38   9 VRB7      29.79F HX 101
PALM SPRINGS   SUNNY    102  66  30 VRB5      29.81F HX 106
EL CENTRO NAS  MOSUNNY  105  63  25 VRB5      29.76F HX 108
IMPERIAL       MOSUNNY  107  67  27 E8        29.74F HX 113
BLYTHE         CLOUDY   106  62  23 S17       29.80F HX 108
NEEDLES        SUNNY    111  54  15 S15G22    29.81F HX 109
$$

NVZ020-UTZ003-232100-
SOUTHERN NEVADA-UTAH

CITY           SKY/WX    TMP DP  RH WIND       PRES   REMARKS
LAS VEGAS      MOSUNNY  109  23   5 VRB3      29.82F HX 100
SALT LAKE CITY MOSUNNY   92  30  11 N10       30.10F
$$

NMZ009-TXZ055-232100-
NEW MEXICO-WEST TEXAS

CITY           SKY/WX    TMP DP  RH WIND       PRES   REMARKS
ALBUQUERQUE    MOSUNNY   96  44  16 MISG      30.11F
EL PASO        MOSUNNY  100  43  14 E6        30.00F
$$


........................KEY........................
SKY/WX - SKY CONDITION/WEATHER
TMP    - TEMPERATURE IN FAHRENHEIT
DP     - DEW POINT IN FAHRENHEIT
RH     - RELATIVE HUMIDITY IN PERCENT
WIND   - DIRECTION AND SPEED IN MILES PER HOUR (MPH)
VRB    - VARIABLE WIND DIRECTION
PRES   - MEAN SEA LEVEL PRESSURE IN INCHES OF MERCURY
         F - FALLING PRESSURE   R - RISING PRESSURE
         S - STEADY PRESSURE
VSB    - VISIBILITY IN MILES
HX     - HEAT INDEX IN FAHRENHEIT
WCI    - WIND CHILL INDEX IN FAHRENHEIT
TC     - TEMPERATURE IN CELSIUS WHICH IS ALSO KNOWN AS
         TEMPERATURE IN CENTIGRADE
AFB    - AIR FORCE BASE
         LUKE AFB IS LUKE AIR FORCE BASE
         DAVIS-MONTHAN IS DAVIS-MONTHAN AIR FORCE BASE
NAS    - NAVAL AIR STATION
         EL CENTRO NAS IS EL CENTRO NAVAL AIR STATION
N/A    - NOT AVAILABLE





USA.gov is the U.S. government's official web portal to all federal, state and local government web resources and services.